This is the latest recevied weather packets stored in our database for station/object WD9EKA. If no packets are shown the sender has not sent any weather packets the latest 10 day(s).
| Time | Temp. | Humidity | Pressure | Rain* | Wind** | Luminosity | Snow |
|---|---|---|---|---|---|---|---|
| 1777925175 | 21.67° C | 65% | 1001 hPa | 0 mm | - | - | - |
| 1777924855 | 21.67° C | 66% | 1001.1 hPa | 0 mm | - | - | - |
| 1777924534 | 21.67° C | 68% | 1001 hPa | 0 mm | - | - | - |
| 1777924215 | 21.67° C | 68% | 1001.3 hPa | 0 mm | - | - | - |
| 1777923895 | 21.67° C | 67% | 1001 hPa | 0 mm | - | - | - |
| 1777923574 | 21.67° C | 66% | 1001 hPa | 0 mm | - | - | - |
| 1777923255 | 21.67° C | 68% | 1001.2 hPa | 0 mm | - | - | - |
| 1777922935 | 21.11° C | 72% | 1001.3 hPa | 0 mm | - | - | - |
| 1777922614 | 21.11° C | 77% | 1001.1 hPa | 0 mm | - | - | - |
| 1777922295 | 21.11° C | 77% | 1001.3 hPa | 0 mm | - | - | - |
| 1777921975 | 21.11° C | 79% | 1001.3 hPa | 0 mm | - | - | - |
| 1777921639 | 21.11° C | 80% | 1001.3 hPa | 0 mm | - | - | - |
| 1777921319 | 20° C | 80% | 1001.2 hPa | 0 mm | - | - | - |
| 1777920999 | 19.44° C | 83% | 1001.4 hPa | 0 mm | - | - | - |
| 1777920679 | 18.89° C | 85% | 1001.4 hPa | 0 mm | - | - | - |
| 1777920359 | 18.89° C | 85% | 1001.2 hPa | 0 mm | - | - | - |
| 1777920039 | 18.33° C | 86% | 1001.6 hPa | 0 mm | - | - | - |
| 1777919719 | 18.33° C | 87% | 1001.5 hPa | 0 mm | - | - | - |
| 1777919399 | 17.78° C | 87% | 1001.8 hPa | 0 mm | - | - | - |
| 1777919079 | 18.33° C | 87% | 1001.5 hPa | 0 mm | - | - | - |
| 1777918759 | 18.33° C | 86% | 1002.1 hPa | 0 mm | - | - | - |
| 1777918439 | 18.89° C | 86% | 1001.8 hPa | 0 mm | - | - | - |
| 1777918120 | 18.89° C | 86% | 1001.6 hPa | 0 mm | - | - | - |
| 1777917799 | 18.89° C | 87% | 1001.6 hPa | 0.25 mm | - | - | - |
| 1777917479 | 18.33° C | 88% | 1002 hPa | 0.25 mm | - | - | - |
* Rain latest hour (hover to see other rain measurements)
** Current wind speed in m/s (hover to see current wind gust speed)